Weather History for KENW - March, 2012

Change the Weather History Date:

Sunday, March 4, 2012

  Actual Average Record
Temperature  
Mean Temperature 27 °F -  
Max Temperature 30 °F 39 °F 56 °F (1968)
Min Temperature 21 °F 24 °F -11 °F (2002)
Degree Days  
Heating Degree Days 38    
Moisture  
Dew Point 22 °F    
Average Humidity 82    
Maximum Humidity 86    
Minimum Humidity 72    
Precipitation  
Precipitation 0.02 in - - ()
Sea Level Pressure  
Sea Level Pressure 29.88 in    
Wind  
Wind Speed 6 mph (NW)    
Max Wind Speed 12 mph    
Max Gust Speed -    
Visibility 5 miles    
Events Fog , Snow    
Averages and records for this station are not official NWS values.
T = Trace of Precipitation, MM = Missing Value Source: NWS Daily Summary

Daily Weather History Graph

Daily Weather History Graph

Search for Another Location

Airport or City:

Trip Planner

Search our weather history database for the weather conditions in past years. The results will help you decide how hot, cold, wet, or windy it might be!

Date:

Astronomy

Mar. 04, 2012 Rise Set
Actual Time 6:21 AM CST 5:45 PM CST
Civil Twilight 5:53 AM CST 6:13 PM CST
Nautical Twilight 5:20 AM CST 6:46 PM CST
Astronomical Twilight 4:48 AM CST 7:19 PM CST
Moon 1:53 PM CST (3/4) 3:46 AM CST (3/4)
Length of Visible Light 12h 20m
Length of Day
11h 24m
Waxing Gibbous, 84% of the Moon is Illuminated
Mar 4
Waxing Gibbous
Mar 8
Full
Mar 14
Last Quarter
Mar 22
New
Mar 30
First Quarter

Hourly Weather History & Observations

Time (CST) Temp. Windchill Dew Point Humidity Pressure Visibility Wind Dir Wind Speed Gust Speed Precip Events Conditions
12:03 AM 26.6 °F 20.0 °F 19.4 °F 74% 29.79 in 10.0 mi West 5.8 mph - N/A   Overcast
12:53 AM 26.1 °F 17.6 °F 21.0 °F 81% 29.82 in 4.0 mi West 8.1 mph - 0.00 in Snow Light Snow
1:14 AM 26.6 °F 18.2 °F 21.2 °F 80% 29.79 in 3.0 mi West 8.1 mph - 0.00 in Snow Light Snow
1:53 AM 26.1 °F 18.4 °F 21.0 °F 81% 29.82 in 4.0 mi West 6.9 mph - 0.00 in Snow Light Snow
2:53 AM 26.1 °F 18.4 °F 21.0 °F 81% 29.81 in 7.0 mi WNW 6.9 mph - 0.00 in Snow Light Snow
3:48 AM 26.6 °F 20.0 °F 21.2 °F 80% 29.79 in 5.0 mi West 5.8 mph - 0.00 in Snow Light Snow
3:53 AM 26.1 °F 20.5 °F 21.9 °F 84% 29.82 in 5.0 mi West 4.6 mph - 0.00 in Snow Light Snow
4:53 AM 26.1 °F 19.4 °F 21.0 °F 81% 29.83 in 5.0 mi West 5.8 mph - 0.00 in Snow Light Snow
5:49 AM 24.8 °F 16.9 °F 21.2 °F 86% 29.81 in 4.0 mi West 6.9 mph - 0.00 in Snow Light Snow
5:53 AM 25.0 °F 18.1 °F 21.0 °F 85% 29.84 in 4.0 mi West 5.8 mph - 0.00 in Snow Light Snow
6:53 AM 25.0 °F 18.1 °F 21.0 °F 85% 29.84 in 5.0 mi West 5.8 mph - 0.00 in   Overcast
6:57 AM 24.8 °F 17.9 °F 21.2 °F 86% 29.81 in 4.0 mi West 5.8 mph - 0.00 in Snow Light Snow
7:53 AM 26.1 °F 20.5 °F 21.9 °F 84% 29.86 in 3.0 mi West 4.6 mph - 0.00 in Snow Light Snow
8:53 AM 26.1 °F 18.4 °F 21.9 °F 84% 29.86 in 3.0 mi WNW 6.9 mph - 0.00 in   Overcast
9:53 AM 27.0 °F 18.7 °F 21.9 °F 81% 29.87 in 9.0 mi West 8.1 mph - N/A   Overcast
10:42 AM 28.4 °F 21.2 °F 23.0 °F 80% 29.84 in 2.0 mi WNW 6.9 mph - 0.00 in Snow Light Snow
10:53 AM 28.0 °F 21.7 °F 23.0 °F 81% 29.88 in 2.0 mi WNW 5.8 mph - 0.00 in Snow Light Snow
10:54 AM 28.4 °F 22.2 °F 24.8 °F 86% 29.84 in 0.5 mi WNW 5.8 mph - 0.00 in Fog , Snow Snow
11:53 AM 28.0 °F 24.2 °F 23.0 °F 81% 29.88 in 10.0 mi NW 3.5 mph - 0.00 in   Overcast
12:53 PM 28.9 °F 21.9 °F 21.0 °F 72% 29.87 in 10.0 mi WNW 6.9 mph - N/A   Overcast
1:53 PM 28.9 °F 25.2 °F 21.0 °F 72% 29.86 in 10.0 mi NW 3.5 mph - N/A   Overcast
2:53 PM 30.0 °F - 23.0 °F 75% 29.86 in 8.0 mi Calm Calm - N/A   Overcast
3:53 PM 28.0 °F 20.8 °F 21.9 °F 78% 29.88 in 10.0 mi North 6.9 mph - N/A   Overcast
4:46 PM 26.6 °F 19.1 °F 21.2 °F 80% 29.87 in 2.5 mi North 6.9 mph - 0.00 in Snow Light Snow
4:53 PM 27.0 °F 19.5 °F 21.9 °F 81% 29.91 in 2.0 mi North 6.9 mph - 0.00 in Snow Light Snow
5:53 PM 27.0 °F 21.6 °F 21.9 °F 81% 29.93 in 2.5 mi North 4.6 mph - 0.00 in Snow Light Snow
6:49 PM 26.6 °F 21.2 °F 23.0 °F 86% 29.92 in 2.5 mi NW 4.6 mph - 0.00 in Snow Light Snow
6:53 PM 27.0 °F 20.5 °F 23.0 °F 85% 29.95 in 2.5 mi NW 5.8 mph - 0.00 in Snow Light Snow
7:16 PM 26.6 °F 20.0 °F 23.0 °F 86% 29.93 in 0.8 mi NNW 5.8 mph - 0.01 in Snow Light Snow
7:40 PM 26.6 °F 20.0 °F 23.0 °F 86% 29.93 in 0.8 mi NNW 5.8 mph - 0.01 in Snow Light Snow
7:50 PM 26.6 °F 16.2 °F 23.0 °F 86% 29.94 in 1.0 mi NNW 11.5 mph - 0.01 in Snow Light Snow
7:53 PM 26.1 °F 15.6 °F 21.9 °F 84% 29.97 in 1.0 mi NNW 11.5 mph - 0.01 in Snow Light Snow
8:53 PM 25.0 °F 14.2 °F 21.0 °F 85% 29.99 in 4.0 mi North 11.5 mph - 0.01 in Snow Light Snow
9:05 PM 24.8 °F 14.6 °F 19.4 °F 80% 29.95 in 4.0 mi North 10.4 mph - 0.00 in Snow Light Snow
9:53 PM 24.1 °F 15.2 °F 19.0 °F 81% 30.01 in 6.0 mi NNW 8.1 mph - 0.00 in Snow Light Snow
11:53 PM 21.0 °F 11.4 °F 15.1 °F 78% 30.04 in 10.0 mi NNW 8.1 mph - N/A   Mostly Cloudy